When you browse on this site, cookies collect data to enhance your experience and personalize the content and advertising you see.
Visit our Privacy Policy to learn more. By continuing to use the site, you agree to this use of cookies and data.
  • In Hungary
  • List of Countries
  • For 7 days
  • Water Temperature
  • Weather Map
  • News
  • Weather Widgets
  • user-avatar
    Login

    Hourly Weather Trani

    Today, 9 December, Monday

    Time Temperature Precipitation Wind Pressure Humidity
    00:00 +12°C° 0 mm 3 mps 761 mmHg 81%
    01:00 +12°C° 0 mm 3 mps 761 mmHg 82%
    02:00 +12°C° 0 mm 3 mps 760 mmHg 83%
    03:00 +12°C° 0 mm 2 mps 760 mmHg 83%
    04:00 +12°C° 0 mm 2 mps 759 mmHg 84%
    05:00 +12°C° 0 mm 2 mps 759 mmHg 84%
    06:00 +12°C° 0 mm 2 mps 758 mmHg 83%
    07:00 +11°C° 0 mm 3 mps 758 mmHg 83%
    08:00 +13°C° 0 mm 2 mps 758 mmHg 78%
    09:00 +14°C° 0 mm 2 mps 758 mmHg 72%
    10:00 +15°C° 0 mm 2 mps 757 mmHg 67%
    11:00 +16°C° 0 mm 2 mps 757 mmHg 62%
    12:00 +17°C° 0 mm 2 mps 756 mmHg 57%
    13:00 +18°C° 0 mm 2 mps 755 mmHg 53%
    14:00 +18°C° 0 mm 2 mps 755 mmHg 55%
    15:00 +17°C° 0 mm 3 mps 755 mmHg 58%
    16:00 +16°C° 0 mm 3 mps 754 mmHg 61%
    17:00 +15°C° 0 mm 4 mps 754 mmHg 64%
    18:00 +14°C° 0 mm 4 mps 753 mmHg 67%
    19:00 +13°C° 0 mm 5 mps 753 mmHg 71%
    20:00 +13°C° 0 mm 4 mps 753 mmHg 71%
    21:00 +13°C° 0 mm 4 mps 753 mmHg 71%
    22:00 +13°C° 0 mm 4 mps 752 mmHg 72%
    23:00 +12°C° 0 mm 4 mps 752 mmHg 73%

    Tomorrow, 10 December, Tuesday

    Time Temperature Precipitation Wind Pressure Humidity
    00:00 +12°C° 0 mm 4 mps 752 mmHg 74%
    01:00 +12°C° 0 mm 5 mps 752 mmHg 75%
    02:00 +10°C° 0 mm 5 mps 752 mmHg 76%
    03:00 +10°C° 0 mm 5 mps 752 mmHg 78%
    04:00 +10°C° 0 mm 6 mps 751 mmHg 79%
    05:00 +9°C° 0.1 mm 6 mps 752 mmHg 83%
    06:00 +9°C° 0.1 mm 6 mps 752 mmHg 87%
    07:00 +9°C° 0.1 mm 6 mps 752 mmHg 90%
    08:00 +10°C° 0.2 mm 6 mps 752 mmHg 86%
    09:00 +10°C° 0.2 mm 7 mps 753 mmHg 81%
    10:00 +11°C° 0.2 mm 7 mps 753 mmHg 77%
    11:00 +13°C° 0.1 mm 6 mps 753 mmHg 74%
    12:00 +13°C° 0.1 mm 6 mps 752 mmHg 70%
    13:00 +14°C° 0.1 mm 5 mps 752 mmHg 67%
    14:00 +14°C° 0.4 mm 6 mps 752 mmHg 70%
    15:00 +12°C° 0.4 mm 7 mps 752 mmHg 73%
    16:00 +12°C° 0.4 mm 8 mps 752 mmHg 76%
    17:00 +11°C° 1.3 mm 8 mps 753 mmHg 79%
    18:00 +11°C° 1.3 mm 9 mps 753 mmHg 81%
    19:00 +9°C° 1.3 mm 10 mps 754 mmHg 84%
    20:00 +8°C° 1.7 mm 10 mps 754 mmHg 84%
    21:00 +8°C° 1.7 mm 11 mps 754 mmHg 85%
    22:00 +7°C° 1.7 mm 11 mps 755 mmHg 85%
    23:00 +7°C° 1.1 mm 10 mps 755 mmHg 85%

    Day after tomorrow, 11 December, Wednesday

    Time Temperature Precipitation Wind Pressure Humidity
    00:00 +7°C° 1.1 mm 9 mps 755 mmHg 85%
    01:00 +7°C° 1.1 mm 8 mps 755 mmHg 85%
    02:00 +7°C° 0.7 mm 9 mps 755 mmHg 85%
    03:00 +7°C° 0.7 mm 9 mps 755 mmHg 86%
    04:00 +7°C° 0.7 mm 10 mps 755 mmHg 86%
    05:00 +7°C° 0.5 mm 9 mps 755 mmHg 85%
    06:00 +7°C° 0.5 mm 8 mps 755 mmHg 84%
    07:00 +8°C° 0.5 mm 7 mps 756 mmHg 83%
    08:00 +8°C° 0.1 mm 7 mps 756 mmHg 81%
    09:00 +8°C° 0.1 mm 7 mps 756 mmHg 79%
    10:00 +7°C° 0.1 mm 8 mps 757 mmHg 77%
    11:00 +8°C° 0 mm 7 mps 757 mmHg 75%
    12:00 +9°C° 0 mm 6 mps 756 mmHg 72%
    13:00 +9°C° 0 mm 6 mps 756 mmHg 70%
    14:00 +9°C° 0 mm 5 mps 756 mmHg 72%
    15:00 +9°C° 0 mm 5 mps 756 mmHg 75%
    16:00 +8°C° 0 mm 5 mps 756 mmHg 77%
    17:00 +8°C° 0 mm 5 mps 756 mmHg 77%
    18:00 +7°C° 0 mm 5 mps 756 mmHg 78%
    19:00 +6°C° 0 mm 4 mps 756 mmHg 78%
    20:00 +6°C° 0 mm 4 mps 756 mmHg 78%
    21:00 +6°C° 0 mm 4 mps 756 mmHg 78%
    22:00 +7°C° 0 mm 3 mps 756 mmHg 78%
    23:00 +7°C° 0 mm 3 mps 756 mmHg 78%

    12 December, Thursday

    Time Temperature Precipitation Wind Pressure Humidity
    00:00 +5°C° 0 mm 3 mps 756 mmHg 78%
    01:00 +5°C° 0 mm 3 mps 756 mmHg 78%
    02:00 +5°C° 0 mm 3 mps 755 mmHg 78%
    03:00 +6°C° 0 mm 2 mps 755 mmHg 77%
    04:00 +7°C° 0 mm 2 mps 755 mmHg 77%
    05:00 +7°C° 0 mm 2 mps 755 mmHg 77%
    06:00 +7°C° 0 mm 2 mps 755 mmHg 76%
    07:00 +7°C° 0 mm 2 mps 755 mmHg 76%
    08:00 +8°C° 0 mm 2 mps 755 mmHg 72%
    09:00 +9°C° 0 mm 2 mps 755 mmHg 69%
    10:00 +10°C° 0 mm 2 mps 755 mmHg 65%
    11:00 +11°C° 0 mm 1 mps 755 mmHg 66%
    12:00 +12°C° 0 mm 1 mps 755 mmHg 66%
    13:00 +12°C° 0 mm 1 mps 754 mmHg 66%
    14:00 +12°C° 0 mm 1 mps 754 mmHg 68%
    15:00 +12°C° 0 mm 2 mps 754 mmHg 69%
    16:00 +10°C° 0 mm 2 mps 754 mmHg 71%
    17:00 +10°C° 0 mm 2 mps 754 mmHg 73%
    18:00 +11°C° 0 mm 1 mps 754 mmHg 76%
    19:00 +11°C° 0 mm 1 mps 755 mmHg 78%
    20:00 +11°C° 0.2 mm 1 mps 755 mmHg 81%
    21:00 +9°C° 0.2 mm 2 mps 755 mmHg 84%
    22:00 +9°C° 0.2 mm 2 mps 755 mmHg 88%
    23:00 +9°C° 0.1 mm 2 mps 755 mmHg 88%

    13 December, Friday

    Time Temperature Precipitation Wind Pressure Humidity
    00:00 +9°C° 0.1 mm 3 mps 755 mmHg 89%
    01:00 +8°C° 0.1 mm 3 mps 755 mmHg 89%
    02:00 +8°C° 0 mm 3 mps 755 mmHg 88%
    03:00 +7°C° 0 mm 4 mps 754 mmHg 87%
    04:00 +6°C° 0 mm 4 mps 754 mmHg 86%
    05:00 +7°C° 0 mm 3 mps 754 mmHg 85%
    06:00 +7°C° 0 mm 3 mps 754 mmHg 83%
    07:00 +7°C° 0 mm 2 mps 754 mmHg 82%
    08:00 +9°C° 0 mm 3 mps 754 mmHg 77%
    09:00 +10°C° 0 mm 4 mps 754 mmHg 71%
    10:00 +11°C° 0 mm 4 mps 754 mmHg 66%
    11:00 +12°C° 0 mm 5 mps 753 mmHg 64%
    12:00 +13°C° 0 mm 6 mps 752 mmHg 61%
    13:00 +14°C° 0 mm 7 mps 751 mmHg 59%
    14:00 +14°C° 0 mm 7 mps 750 mmHg 62%
    15:00 +12°C° 0 mm 8 mps 749 mmHg 65%
    16:00 +12°C° 0 mm 9 mps 749 mmHg 67%
    17:00 +12°C° 0.5 mm 10 mps 747 mmHg 71%
    18:00 +12°C° 0.5 mm 10 mps 746 mmHg 75%
    19:00 +12°C° 0.5 mm 11 mps 745 mmHg 79%
    20:00 +12°C° 0.4 mm 11 mps 745 mmHg 75%
    21:00 +13°C° 0.4 mm 11 mps 744 mmHg 71%
    22:00 +13°C° 0.4 mm 11 mps 744 mmHg 67%
    23:00 +12°C° 0.1 mm 11 mps 744 mmHg 69%

    14 December, Saturday

    Time Temperature Precipitation Wind Pressure Humidity
    00:00 +9°C° 0.1 mm 11 mps 745 mmHg 72%
    01:00 +8°C° 0.1 mm 12 mps 745 mmHg 74%
    02:00 +8°C° 0 mm 12 mps 746 mmHg 73%
    03:00 +8°C° 0 mm 12 mps 747 mmHg 72%
    04:00 +7°C° 0 mm 12 mps 748 mmHg 71%
    05:00 +7°C° 0 mm 10 mps 748 mmHg 72%
    06:00 +7°C° 0 mm 9 mps 749 mmHg 73%
    07:00 +7°C° 0 mm 8 mps 750 mmHg 74%
    08:00 +9°C° 0 mm 7 mps 751 mmHg 69%
    09:00 +10°C° 0 mm 6 mps 752 mmHg 64%
    10:00 +12°C° 0 mm 5 mps 752 mmHg 59%
    11:00 +13°C° 0 mm 4 mps 752 mmHg 54%
    12:00 +14°C° 0 mm 3 mps 752 mmHg 48%
    13:00 +16°C° 0 mm 3 mps 752 mmHg 42%
    14:00 +15°C° 0 mm 2 mps 753 mmHg 46%
    15:00 +15°C° 0 mm 1 mps 753 mmHg 50%
    16:00 +13°C° 0 mm 0 mps 754 mmHg 54%
    17:00 +14°C° 0 mm 1 mps 755 mmHg 58%
    18:00 +13°C° 0 mm 1 mps 755 mmHg 62%
    19:00 +13°C° 0 mm 1 mps 756 mmHg 67%
    20:00 +13°C° 0 mm 2 mps 757 mmHg 71%
    21:00 +12°C° 0 mm 2 mps 758 mmHg 75%
    22:00 +12°C° 0 mm 2 mps 759 mmHg 78%
    23:00 +12°C° 0 mm 2 mps 759 mmHg 78%
    Show more